Simultaneous Nadir Overpasses (SNOs) Predictions

Prediction of SNOs between GOES-15 and TERRA Satellite Orbit:

Table of predicted SNOs for the next 14.0 days since TLE Epoch: 9/16/2012
Index Date Time (GOES-15) GOES-15 Lat,Lon TERRA Lat,Lon Distance(km) Time Diff (sec)
1 09/17/2012 19:30:55 -0.37,-135.12 -0.25,-135.69 65.28 80
2 09/19/2012 19:21:23 -0.37,-135.17 -0.90,-132.74 276.41 80
3 09/20/2012 07:42:47 0.38,-135.17 -0.20,-137.93 313.61 80
4 09/22/2012 07:27:54 0.37,-135.21 0.40,-134.96 27.23 80
5 09/24/2012 07:15:42 0.36,-135.24 1.05,-132.01 367.31 80
6 09/24/2012 19:36:56 -0.37,-135.25 0.06,-137.16 217.74 80
7 09/26/2012 19:27:25 -0.37,-135.28 -0.60,-134.21 122.35 80
8 09/27/2012 07:48:48 0.37,-135.29 -0.49,-139.40 466.96 80
9 09/28/2012 19:15:12
